• En España
  • Lista de países
  • Para 7 días
  • Temperatura del agua
  • Mapa Satelital
  • El tiempo en el mapa
  • Informadores
  • user-avatar
    Iniciar sesión

    Tiempo cada hora Klevischi

    Hoy, 28 Mayo, Lunes

    Tiempo Temperatura Precipitaciones Viento Presión Humedad
    00:00 +9°C° 0 mm 3 mps 756 mmHg 50%
    01:00 +8°C° 0 mm 3 mps 756 mmHg 53%
    02:00 +7°C° 0 mm 2 mps 757 mmHg 55%
    03:00 +7°C° 0 mm 2 mps 758 mmHg 55%
    04:00 +7°C° 0 mm 2 mps 758 mmHg 55%
    05:00 +8°C° 0 mm 2 mps 759 mmHg 56%
    06:00 +9°C° 0 mm 2 mps 759 mmHg 51%
    07:00 +12°C° 0 mm 2 mps 759 mmHg 46%
    08:00 +14°C° 0 mm 2 mps 760 mmHg 42%
    09:00 +15°C° 0 mm 2 mps 760 mmHg 39%
    10:00 +16°C° 0 mm 2 mps 760 mmHg 36%
    11:00 +17°C° 0 mm 2 mps 760 mmHg 33%
    12:00 +18°C° 0 mm 2 mps 760 mmHg 32%
    13:00 +18°C° 0 mm 2 mps 760 mmHg 32%
    14:00 +19°C° 0 mm 2 mps 759 mmHg 31%
    15:00 +19°C° 0 mm 2 mps 759 mmHg 33%
    16:00 +20°C° 0 mm 1 mps 759 mmHg 35%
    17:00 +20°C° 0 mm 1 mps 759 mmHg 37%
    18:00 +18°C° 0 mm 1 mps 759 mmHg 43%
    19:00 +15°C° 0 mm 1 mps 758 mmHg 50%
    20:00 +13°C° 0 mm 1 mps 758 mmHg 56%
    21:00 +12°C° 0 mm 1 mps 759 mmHg 58%
    22:00 +11°C° 0 mm 1 mps 759 mmHg 59%
    23:00 +9°C° 0 mm 2 mps 759 mmHg 60%

    Mañana, 29 Mayo, Martes

    Tiempo Temperatura Precipitaciones Viento Presión Humedad
    00:00 +9°C° 0 mm 2 mps 759 mmHg 62%
    01:00 +8°C° 0 mm 2 mps 759 mmHg 64%
    02:00 +8°C° 0 mm 2 mps 759 mmHg 66%
    03:00 +9°C° 0 mm 2 mps 759 mmHg 65%
    04:00 +9°C° 0 mm 2 mps 759 mmHg 64%
    05:00 +10°C° 0 mm 3 mps 758 mmHg 64%
    06:00 +12°C° 0 mm 3 mps 758 mmHg 58%
    07:00 +16°C° 0 mm 3 mps 758 mmHg 53%
    08:00 +18°C° 0 mm 3 mps 757 mmHg 47%
    09:00 +19°C° 0 mm 3 mps 757 mmHg 44%
    10:00 +20°C° 0 mm 4 mps 756 mmHg 41%
    11:00 +22°C° 0 mm 4 mps 756 mmHg 37%
    12:00 +22°C° 0 mm 4 mps 755 mmHg 37%
    13:00 +23°C° 0 mm 4 mps 754 mmHg 36%
    14:00 +23°C° 0 mm 4 mps 754 mmHg 36%
    15:00 +23°C° 0 mm 4 mps 753 mmHg 39%
    16:00 +24°C° 0 mm 3 mps 752 mmHg 42%
    17:00 +24°C° 0 mm 3 mps 751 mmHg 45%
    18:00 +21°C° 0 mm 3 mps 750 mmHg 53%
    19:00 +19°C° 0 mm 3 mps 750 mmHg 61%
    20:00 +17°C° 0 mm 2 mps 749 mmHg 69%
    21:00 +16°C° 0 mm 3 mps 749 mmHg 73%
    22:00 +16°C° 0 mm 3 mps 749 mmHg 77%
    23:00 +14°C° 0 mm 3 mps 748 mmHg 81%

    Pasado mañana, 30 Mayo, Miércoles

    Tiempo Temperatura Precipitaciones Viento Presión Humedad
    00:00 +14°C° 0 mm 3 mps 748 mmHg 82%
    01:00 +13°C° 0 mm 3 mps 747 mmHg 83%
    02:00 +13°C° 0 mm 3 mps 747 mmHg 84%
    03:00 +13°C° 0 mm 4 mps 746 mmHg 80%
    04:00 +14°C° 0 mm 4 mps 746 mmHg 76%
    05:00 +14°C° 0 mm 4 mps 745 mmHg 72%
    06:00 +16°C° 0 mm 5 mps 745 mmHg 64%
    07:00 +19°C° 0 mm 5 mps 744 mmHg 57%
    08:00 +21°C° 0 mm 6 mps 744 mmHg 49%
    09:00 +22°C° 0 mm 6 mps 743 mmHg 46%
    10:00 +23°C° 0 mm 6 mps 743 mmHg 43%
    11:00 +24°C° 0 mm 7 mps 742 mmHg 40%
    12:00 +26°C° 0 mm 7 mps 742 mmHg 39%
    13:00 +26°C° 0 mm 7 mps 742 mmHg 39%
    14:00 +26°C° 0 mm 7 mps 741 mmHg 38%
    15:00 +24°C° 0 mm 6 mps 741 mmHg 41%
    16:00 +22°C° 0 mm 5 mps 741 mmHg 45%
    17:00 +21°C° 0 mm 4 mps 741 mmHg 48%
    18:00 +19°C° 0 mm 4 mps 742 mmHg 50%
    19:00 +17°C° 0 mm 3 mps 742 mmHg 52%
    20:00 +13°C° 0 mm 3 mps 742 mmHg 54%
    21:00 +12°C° 0 mm 3 mps 743 mmHg 58%
    22:00 +12°C° 0 mm 2 mps 743 mmHg 62%
    23:00 +10°C° 0 mm 2 mps 744 mmHg 66%

    31 Mayo, Jueves

    Tiempo Temperatura Precipitaciones Viento Presión Humedad
    00:00 +9°C° 0 mm 2 mps 744 mmHg 69%
    01:00 +9°C° 0 mm 3 mps 745 mmHg 71%
    02:00 +8°C° 0 mm 3 mps 745 mmHg 74%
    03:00 +8°C° 0 mm 3 mps 745 mmHg 70%
    04:00 +7°C° 0 mm 4 mps 746 mmHg 66%
    05:00 +7°C° 0 mm 4 mps 746 mmHg 63%
    06:00 +8°C° 0 mm 4 mps 747 mmHg 58%
    07:00 +8°C° 0 mm 4 mps 747 mmHg 53%
    08:00 +10°C° 0 mm 4 mps 748 mmHg 48%
    09:00 +11°C° 0 mm 4 mps 748 mmHg 45%
    10:00 +12°C° 0 mm 4 mps 748 mmHg 42%
    11:00 +12°C° 0 mm 4 mps 749 mmHg 38%
    12:00 +13°C° 0 mm 4 mps 749 mmHg 37%
    13:00 +13°C° 0 mm 4 mps 749 mmHg 35%
    14:00 +14°C° 0 mm 4 mps 749 mmHg 34%
    15:00 +13°C° 0 mm 4 mps 749 mmHg 35%
    16:00 +13°C° 0 mm 4 mps 749 mmHg 35%
    17:00 +13°C° 0 mm 4 mps 749 mmHg 36%
    18:00 +11°C° 0 mm 3 mps 750 mmHg 43%
    19:00 +9°C° 0 mm 3 mps 750 mmHg 49%
    20:00 +7°C° 0 mm 2 mps 751 mmHg 56%
    21:00 +6°C° 0 mm 2 mps 751 mmHg 57%
    22:00 +5°C° 0 mm 2 mps 752 mmHg 58%
    23:00 +3°C° 0 mm 3 mps 752 mmHg 59%

    1 Junio, Viernes

    Tiempo Temperatura Precipitaciones Viento Presión Humedad
    00:00 +4°C° 0 mm 2 mps 752 mmHg 61%
    01:00 +3°C° 0 mm 2 mps 753 mmHg 64%
    02:00 +2°C° 0 mm 2 mps 753 mmHg 66%
    03:00 +2°C° 0 mm 3 mps 753 mmHg 65%
    04:00 +2°C° 0 mm 3 mps 754 mmHg 63%
    05:00 +3°C° 0 mm 3 mps 754 mmHg 62%
    06:00 +4°C° 0 mm 3 mps 754 mmHg 57%
    07:00 +7°C° 0 mm 3 mps 755 mmHg 52%
    08:00 +8°C° 0 mm 3 mps 755 mmHg 47%
    09:00 +9°C° 0 mm 3 mps 755 mmHg 44%
    10:00 +10°C° 0 mm 3 mps 755 mmHg 42%
    11:00 +11°C° 0 mm 3 mps 755 mmHg 40%
    12:00 +12°C° 0 mm 3 mps 754 mmHg 38%
    13:00 +13°C° 0 mm 3 mps 754 mmHg 37%
    14:00 +13°C° 0 mm 3 mps 754 mmHg 35%
    15:00 +13°C° 0 mm 3 mps 754 mmHg 36%
    16:00 +14°C° 0 mm 2 mps 754 mmHg 36%
    17:00 +14°C° 0 mm 2 mps 754 mmHg 37%
    18:00 +12°C° 0 mm 2 mps 754 mmHg 44%
    19:00 +10°C° 0 mm 1 mps 754 mmHg 52%
    20:00 +7°C° 0 mm 0 mps 754 mmHg 60%
    21:00 +6°C° 0 mm 0 mps 754 mmHg 61%
    22:00 +6°C° 0 mm 1 mps 755 mmHg 63%
    23:00 +6°C° 0 mm 1 mps 755 mmHg 64%

    2 Junio, Sábado

    Tiempo Temperatura Precipitaciones Viento Presión Humedad
    00:00 +5°C° 0 mm 1 mps 755 mmHg 66%
    01:00 +5°C° 0 mm 1 mps 755 mmHg 67%
    02:00 +5°C° 0 mm 1 mps 755 mmHg 68%
    03:00 +6°C° 0 mm 1 mps 755 mmHg 67%
    04:00 +7°C° 0 mm 1 mps 756 mmHg 65%
    05:00 +7°C° 0 mm 1 mps 756 mmHg 63%
    06:00 +10°C° 0 mm 1 mps 756 mmHg 56%
    07:00 +12°C° 0 mm 1 mps 756 mmHg 50%
    08:00 +15°C° 0 mm 1 mps 756 mmHg 43%
    09:00 +16°C° 0 mm 1 mps 755 mmHg 40%
    10:00 +18°C° 0 mm 1 mps 755 mmHg 37%
    11:00 +20°C° 0 mm 1 mps 755 mmHg 33%
    12:00 +20°C° 0 mm 1 mps 754 mmHg 33%
    13:00 +20°C° 0 mm 2 mps 754 mmHg 33%
    14:00 +20°C° 0 mm 2 mps 753 mmHg 33%
    15:00 +20°C° 0 mm 2 mps 753 mmHg 35%
    16:00 +20°C° 0 mm 2 mps 752 mmHg 37%
    17:00 +20°C° 0 mm 2 mps 752 mmHg 39%
    18:00 +17°C° 0 mm 2 mps 752 mmHg 47%
    19:00 +15°C° 0 mm 2 mps 751 mmHg 55%
    20:00 +13°C° 0 mm 2 mps 751 mmHg 63%
    21:00 +12°C° 0 mm 2 mps 751 mmHg 64%
    22:00 +12°C° 0 mm 2 mps 751 mmHg 66%
    23:00 +10°C° 0 mm 2 mps 751 mmHg 67%
    Mostrar más